Theta_e
347 348 350 352 353 350 350 354 355 353 352 352 351 351 351 351 352 352 355 357 358 359 360 359 359 359 359 358 357 356 355 354 355 356 356 356 355 355 355 355 355 355 355 355 356 356 357 358 358 358 359 360 359 361 361 359 359 362 362 361 361 361 360
344 345 346 348 349 350 351 354 355 354 353 352 352 352 351 351 352 353 355 357 358 359 360 360 359 359 359 358 358 358 356 354 354 356 355 356 356 356 355 355 354 356 355 354 356 358 358 358 358 358 359 360 358 360 361 361 362 363 363 363 362 361 360
343 344 346 346 346 349 352 354 354 355 354 353 353 353 352 352 352 353 354 357 358 358 359 359 359 358 359 359 359 359 357 354 353 354 354 354 355 354 354 355 354 354 355 354 355 357 356 357 358 358 359 359 358 358 360 361 362 362 364 364 362 362 361
342 343 343 345 346 347 351 354 354 354 354 354 354 353 352 352 352 354 355 356 357 358 358 359 358 358 358 359 359 359 359 356 354 353 352 350 352 353 353 354 354 353 353 353 354 354 354 356 358 358 358 358 358 358 359 360 360 361 363 363 360 361 362
342 342 342 344 345 346 349 353 354 353 353 354 353 353 353 352 352 353 355 355 355 357 357 358 357 357 358 358 358 359 359 357 355 353 352 350 351 353 353 353 353 352 352 354 354 355 355 355 356 358 358 358 358 358 359 360 359 360 362 362 361 361 360
340 342 342 342 343 344 347 351 354 353 353 352 351 352 353 352 352 352 354 354 354 355 356 356 356 356 358 358 357 358 358 358 356 354 353 353 352 354 354 353 352 351 352 353 353 354 356 355 354 355 356 356 356 357 357 358 358 358 360 361 361 360 359
337 339 341 342 342 343 345 350 352 352 352 351 350 352 353 352 352 352 352 353 353 354 355 355 356 355 357 357 357 358 358 358 357 355 354 354 353 354 354 354 353 351 351 352 353 353 354 354 353 354 354 353 353 355 356 357 358 358 359 361 361 361 360
334 336 338 340 340 341 344 348 349 350 353 353 352 353 352 352 352 352 352 352 352 353 353 354 355 355 356 357 357 358 358 357 358 357 355 353 354 354 354 354 354 352 351 351 352 352 352 352 353 353 354 353 352 354 355 357 359 358 358 360 360 360 360
332 334 335 336 337 340 343 345 345 347 349 351 352 354 353 351 351 350 351 351 351 352 353 353 354 355 356 357 357 357 357 357 357 357 356 354 353 353 352 352 353 353 353 351 351 352 351 351 350 352 355 354 353 356 356 357 360 358 357 358 360 360 359
331 332 333 334 335 339 341 342 343 343 345 347 349 351 353 353 352 350 350 350 351 351 351 352 352 354 355 357 357 357 357 357 357 357 356 354 353 352 351 350 351 353 353 351 349 349 351 351 350 351 356 355 354 356 357 357 359 358 356 357 358 358 358
331 331 332 332 333 335 337 340 341 341 341 343 345 348 350 352 353 352 351 349 350 350 351 351 351 352 354 356 356 356 356 357 356 356 356 354 353 352 351 349 349 351 353 352 349 347 350 352 351 352 355 355 352 354 357 357 358 357 355 354 356 357 357
330 331 331 331 332 332 334 337 339 340 339 340 342 344 347 350 351 353 353 352 350 349 350 350 350 351 353 355 356 355 356 357 356 355 355 355 353 352 351 351 349 350 351 352 350 348 348 351 352 352 354 354 352 352 356 357 357 358 357 354 353 355 355
329 330 330 330 331 331 332 333 335 337 337 338 339 341 344 347 349 351 352 353 352 350 349 350 351 351 351 354 354 355 355 356 356 355 354 354 354 353 352 352 350 349 351 352 351 348 347 349 352 353 353 353 352 350 353 357 357 358 359 357 353 354 356
327 327 328 329 330 331 331 330 332 334 335 336 337 338 341 344 346 349 351 352 353 353 350 349 350 351 352 353 354 354 355 355 356 356 354 355 355 354 353 352 351 351 351 352 352 350 348 347 350 353 353 353 352 350 351 355 357 356 358 358 354 353 355
326 326 326 327 328 329 330 330 331 331 332 333 334 335 338 340 343 346 349 351 352 353 354 352 350 350 352 353 354 355 356 356 356 356 356 355 356 356 355 353 353 353 352 353 352 351 349 347 347 350 352 353 353 352 349 351 355 356 356 357 357 353 352
326 325 326 326 326 328 328 329 330 330 330 331 331 332 335 337 339 342 346 349 351 351 354 355 354 352 351 353 354 355 356 357 357 357 357 356 356 356 356 355 354 353 353 354 354 352 351 351 349 348 349 352 354 353 351 350 352 354 351 350 353 354 352
326 326 325 326 326 326 327 328 330 330 330 330 329 330 331 333 337 339 342 346 349 350 352 353 355 354 352 352 354 354 356 358 359 358 358 357 357 357 357 356 355 354 354 354 355 354 353 353 352 350 349 351 353 354 353 351 351 352 349 343 343 348 354
327 327 325 325 326 326 326 328 329 330 330 329 329 328 328 331 334 337 338 342 345 347 350 352 354 355 354 353 353 354 356 359 359 359 359 359 358 358 358 357 356 355 355 355 355 356 355 354 354 353 351 350 351 353 354 352 351 350 348 343 338 339 347
326 326 326 325 325 326 326 328 329 329 329 329 329 328 327 329 332 335 336 339 341 343 346 349 352 354 355 356 354 354 355 358 358 358 358 359 359 358 358 358 357 356 356 356 356 356 356 356 355 355 354 352 351 351 352 353 353 351 348 345 340 337 340
325 326 327 326 325 326 327 328 328 328 329 328 328 327 327 328 331 334 336 336 338 340 341 344 349 351 354 356 356 355 356 357 356 355 357 359 359 359 359 359 358 357 356 356 356 356 357 357 356 356 356 355 353 353 352 352 353 353 350 347 345 341 340
323 323 325 325 326 327 327 327 327 328 329 328 328 327 327 327 330 333 335 336 336 337 338 339 342 345 349 352 354 355 356 358 357 356 357 358 359 359 359 359 359 358 356 356 356 357 358 357 357 357 357 356 356 354 354 353 352 352 351 350 348 346 344
320 321 322 323 325 326 327 326 326 326 328 328 328 326 327 327 329 331 334 336 336 336 336 337 337 339 342 346 348 350 353 355 357 357 357 357 359 359 359 359 359 359 358 356 355 356 358 358 357 357 357 356 356 356 355 355 353 352 352 350 350 349 346
319 319 320 321 322 324 325 325 325 325 326 328 327 326 327 327 328 330 333 335 336 336 335 336 336 336 337 340 342 344 347 350 354 357 358 358 358 358 359 359 359 360 360 358 357 356 356 358 358 358 357 356 357 357 356 356 355 354 353 351 350 350 348
318 318 319 319 319 321 322 323 324 325 325 326 327 327 328 327 327 329 332 333 334 335 334 335 336 335 334 335 337 340 342 345 349 353 357 359 359 358 358 359 358 359 359 359 358 357 356 357 358 358 358 358 357 357 357 357 356 355 354 353 352 351 349
318 318 318 318 318 319 320 321 323 324 324 324 325 327 328 327 326 328 331 332 333 334 333 333 334 334 333 333 335 337 339 341 345 349 352 355 357 357 357 357 358 358 359 359 359 358 357 357 357 358 359 358 358 357 357 357 357 356 355 354 353 352 350
318 318 318 318 318 318 318 319 321 322 323 324 325 326 327 327 326 327 329 330 332 333 333 332 332 333 333 332 333 335 337 338 341 344 347 350 352 353 353 353 354 356 358 358 358 358 358 358 357 358 359 359 359 358 357 357 357 357 356 354 353 353 351
318 318 318 318 319 319 318 318 319 320 321 323 324 324 325 326 327 327 328 328 330 332 331 331 331 332 332 333 334 335 336 337 338 339 342 345 348 350 350 348 349 353 355 354 356 358 359 359 359 359 359 359 360 359 359 359 358 358 357 355 354 353 352
318 319 319 318 319 319 319 319 318 318 319 321 323 324 325 326 327 328 327 328 329 329 329 330 331 331 331 333 335 336 335 335 335 336 339 341 343 346 347 346 347 351 354 353 353 355 355 356 357 360 361 360 360 361 361 360 359 359 358 356 355 354 353
319 319 319 319 319 319 319 319 319 319 319 320 323 324 325 326 327 328 327 328 329 328 328 329 330 331 331 332 335 337 336 335 334 335 337 339 340 343 346 345 344 345 350 353 353 353 354 353 353 356 358 359 360 362 362 362 361 360 358 358 356 355 355
317 318 318 318 319 319 320 320 320 320 320 320 322 324 326 326 327 327 327 328 328 328 328 328 328 329 331 332 333 336 336 336 336 336 337 338 339 342 345 345 343 343 347 350 352 352 353 353 351 350 352 354 357 359 361 363 364 362 360 359 357 356 356
316 317 317 317 318 319 319 320 321 321 321 321 322 324 326 327 327 328 327 328 328 328 327 328 328 329 330 331 333 334 335 336 337 337 338 337 337 341 345 346 346 346 347 350 352 352 352 352 351 351 351 352 354 354 356 360 364 364 362 360 359 358 357
315 316 316 316 317 318 319 319 320 321 321 322 322 323 325 326 327 328 327 328 328 328 327 327 328 329 329 330 331 332 334 336 337 337 336 336 336 339 342 344 346 348 349 350 353 354 354 353 352 351 350 351 352 352 352 355 359 362 364 362 361 360 359
315 315 315 316 316 317 318 319 319 320 321 321 322 322 324 325 326 326 326 327 328 327 327 327 328 328 329 329 329 330 332 335 335 335 335 335 336 337 338 340 343 346 349 350 352 354 355 354 352 350 350 350 350 350 350 352 354 357 362 363 362 360 360
314 315 315 315 316 316 317 318 318 319 320 321 322 322 323 324 325 325 326 326 325 326 326 326 326 327 328 328 329 330 331 333 333 334 334 335 335 336 337 338 339 342 345 347 349 352 353 353 352 351 350 350 350 350 351 352 352 353 357 362 364 362 361
313 313 314 314 315 316 316 317 318 319 319 320 320 322 322 323 324 325 325 324 323 324 325 326 326 326 327 327 328 329 330 331 331 332 333 334 334 335 336 336 336 336 337 338 340 344 346 348 350 351 351 350 351 351 351 351 351 351 353 358 363 364 363
312 313 313 314 314 315 316 317 317 318 319 319 320 321 322 323 324 325 325 323 323 323 323 324 326 326 326 326 327 327 328 328 329 330 332 333 333 334 334 334 333 332 332 332 333 335 338 341 344 347 349 350 351 352 352 353 352 351 352 354 357 361 364
312 313 313 314 314 315 316 316 317 318 318 319 320 321 322 323 323 324 324 324 323 323 322 323 324 325 325 325 325 326 326 326 327 328 330 331 332 333 333 333 333 332 331 331 331 332 334 336 338 341 343 347 350 352 353 355 355 354 353 353 354 357 361
313 313 314 314 315 315 315 316 317 317 318 318 319 320 322 322 323 324 324 324 323 322 322 322 322 323 324 324 324 325 325 326 327 328 328 328 330 331 332 332 332 333 332 331 331 331 332 333 335 338 340 344 349 351 352 355 357 357 356 356 357 359 362
Wind_Speed
9 5 2 3 7 10 11 14 17 19 20 21 22 23 23 22 22 21 21 22 23 22 22 22 22 21 21 21 20 19 19 19 18 17 16 15 13 13 12 12 11 11 10 10 9 9 8 8 8 9 8 9 9 8 8 9 8 7 7 7 6 5 6
11 10 8 8 4 4 11 16 18 18 20 21 21 23 23 22 23 22 21 23 24 24 24 24 23 23 22 22 21 21 21 21 20 18 17 16 15 14 13 12 12 12 11 10 9 9 9 9 9 9 9 9 9 9 9 9 9 8 7 7 7 6 7
11 10 9 9 8 6 6 14 18 18 19 20 20 21 22 22 23 23 22 23 25 24 24 24 24 24 23 22 22 21 22 22 21 20 19 18 17 15 14 13 13 13 12 12 11 10 10 10 10 10 10 9 10 10 10 10 10 9 8 8 7 7 7
12 12 10 8 7 8 7 7 16 18 19 20 21 21 22 23 23 23 23 23 24 25 24 24 25 24 23 22 22 22 22 23 22 22 21 19 18 16 15 15 14 14 13 13 13 12 11 11 11 11 11 10 10 10 11 11 11 10 10 9 9 8 8
13 12 11 10 9 7 7 6 9 16 18 17 19 21 22 24 24 23 24 23 23 24 25 25 25 24 24 23 22 21 23 24 23 22 21 20 18 17 17 16 16 15 15 14 14 13 13 12 12 12 12 11 11 11 11 12 12 11 11 10 10 9 9
13 12 11 10 10 8 8 10 7 10 16 17 17 20 21 23 25 24 23 24 24 23 24 24 24 23 23 24 23 21 22 23 24 23 21 20 19 18 18 18 17 16 16 15 15 14 14 14 14 13 13 13 12 12 12 12 12 12 12 12 11 10 10
11 12 12 11 10 9 10 12 13 7 6 13 18 19 20 20 22 23 23 22 23 24 24 24 23 23 22 23 23 22 22 23 24 24 23 21 21 20 19 18 17 17 16 16 16 15 15 15 15 15 14 13 13 13 12 12 13 13 12 12 12 12 11
12 12 13 13 11 11 12 14 17 18 13 5 3 10 16 19 18 19 21 21 21 22 23 24 24 23 23 22 22 23 23 23 23 24 24 23 22 22 20 19 18 18 17 17 17 17 16 16 16 16 16 15 14 13 13 13 13 13 13 13 13 13 12
12 12 13 14 13 12 15 17 18 20 20 19 16 11 2 12 17 18 19 19 20 21 22 22 23 23 22 22 22 23 23 23 22 23 24 24 23 23 22 21 19 19 19 19 18 17 17 17 17 17 17 17 16 15 14 14 15 14 14 14 14 14 13
13 13 13 14 13 14 17 20 20 20 20 20 19 18 14 7 8 15 18 19 19 20 21 21 20 21 22 21 22 23 22 22 22 23 23 24 24 23 23 21 20 20 20 20 19 18 18 18 18 18 18 18 18 17 16 16 16 16 16 15 15 15 15
12 13 14 14 14 15 18 20 19 18 18 19 19 17 16 15 10 5 11 17 19 18 18 20 20 20 21 22 22 22 22 22 22 23 24 24 24 24 23 22 21 20 20 21 21 20 18 18 18 19 19 20 19 19 19 18 17 17 17 17 16 15 15
12 12 14 15 15 14 15 16 17 19 18 18 19 17 15 14 13 12 9 7 15 18 17 18 20 21 21 21 21 22 22 23 23 23 24 24 24 23 23 23 22 21 21 21 21 21 20 18 19 19 20 21 20 20 20 19 19 18 18 17 17 16 16
11 12 13 14 14 14 14 14 16 18 19 19 19 17 16 16 15 14 14 10 6 13 16 17 18 19 20 20 20 22 23 23 24 24 23 23 23 23 23 23 23 23 21 21 21 22 22 20 19 20 21 21 21 21 21 20 20 20 19 19 18 16 16
12 13 13 14 14 15 15 14 14 16 18 19 19 18 17 17 16 14 11 11 10 6 10 15 17 18 19 19 19 21 23 23 23 23 23 23 22 22 23 23 23 23 22 21 21 22 23 22 21 20 20 21 22 22 21 21 21 21 21 20 20 18 17
13 13 14 14 15 15 15 14 14 16 17 17 18 19 18 16 16 16 13 9 9 10 7 7 14 18 17 18 19 19 21 22 21 21 22 22 22 22 22 22 22 22 22 22 22 22 22 23 23 22 21 21 22 22 22 22 22 23 23 23 21 21 20
12 13 14 14 14 14 14 15 16 16 16 17 18 18 17 16 16 16 15 11 8 10 11 9 7 15 17 17 18 18 18 19 19 20 21 22 22 22 22 22 22 21 22 22 22 22 22 23 24 24 23 22 22 23 23 23 23 25 27 27 24 22 21
12 12 13 13 14 14 14 15 17 18 17 17 18 17 16 16 15 14 14 12 11 10 10 10 8 10 15 16 16 16 16 17 18 19 20 21 22 22 22 22 22 21 22 22 22 22 22 23 24 25 25 24 24 24 24 24 25 27 30 32 30 25 21
11 11 12 13 13 14 14 14 16 18 18 17 17 17 17 17 15 14 14 12 12 12 10 9 9 8 11 13 14 15 15 16 17 18 19 21 21 22 22 22 22 22 22 23 23 23 23 23 24 25 25 25 25 25 25 25 27 29 32 33 34 32 26
10 10 11 12 12 13 13 14 16 17 18 17 17 16 17 17 16 14 14 13 12 12 12 11 9 8 9 9 11 16 17 17 17 19 20 20 21 22 21 21 23 24 24 24 24 23 23 25 25 25 25 26 26 26 26 26 27 30 34 34 35 35 32
9 9 9 10 11 12 13 15 16 17 17 17 17 17 16 17 16 15 14 13 11 11 12 12 10 10 11 11 7 10 17 19 20 21 21 21 21 22 22 23 24 25 25 25 24 24 25 26 26 26 26 26 27 27 27 27 27 29 33 35 35 35 34
9 9 9 9 10 11 13 15 16 17 17 17 17 17 17 17 17 16 14 12 11 10 11 11 11 10 10 12 12 7 8 15 20 22 21 21 21 22 24 25 25 26 26 25 24 25 25 26 26 27 27 27 27 27 27 28 28 30 31 33 34 33 34
9 9 9 10 11 11 12 14 15 16 16 16 17 17 18 17 17 16 15 13 11 9 9 10 10 11 10 11 12 12 9 9 13 17 21 22 22 23 25 26 26 26 26 25 25 24 25 25 26 26 27 28 27 27 27 28 29 31 33 33 33 31 32
9 10 10 10 11 11 11 12 14 14 14 14 15 17 18 18 18 17 15 14 12 10 9 9 9 10 11 10 11 12 12 12 12 13 16 21 23 25 25 26 27 27 26 26 26 25 25 25 25 26 27 27 27 28 28 27 28 30 32 33 33 31 32
10 11 11 11 12 11 11 13 13 14 13 13 13 15 16 17 18 17 16 15 14 13 11 10 10 10 12 12 10 11 12 13 13 14 14 16 21 25 27 27 27 27 26 25 26 26 26 25 24 24 25 27 28 29 28 27 27 29 31 32 33 32 33
10 12 13 13 13 12 13 13 13 13 13 12 13 13 14 15 16 17 16 16 15 14 14 14 13 11 12 13 12 10 11 12 14 14 15 16 17 20 23 26 26 26 25 26 25 25 25 25 25 25 24 25 26 28 29 27 26 28 31 32 33 33 34
10 12 13 14 14 14 14 14 12 12 13 12 13 13 12 13 14 15 15 16 16 15 15 16 17 15 14 13 11 10 9 11 13 14 15 17 18 19 20 22 23 23 23 23 24 24 24 24 25 25 24 25 25 26 28 28 26 28 31 33 33 34 35
12 12 12 13 15 15 15 14 13 13 13 12 12 13 12 12 13 14 15 15 15 16 16 17 17 18 17 14 10 8 8 9 11 13 14 16 17 18 20 20 21 23 23 23 22 22 22 23 24 25 25 25 25 25 26 27 27 28 30 33 33 33 35
14 13 13 13 13 14 15 15 15 15 14 13 13 12 12 12 12 13 14 15 15 16 17 17 17 17 19 17 12 8 8 9 11 12 12 13 14 15 16 17 18 19 22 25 23 21 21 23 24 23 24 24 25 25 26 26 27 29 31 33 34 34 35
14 15 15 14 13 13 15 16 17 16 16 14 14 13 12 12 13 12 13 15 16 16 16 17 17 17 18 18 15 11 9 9 11 10 10 12 14 13 12 13 16 17 17 21 23 22 22 25 27 26 25 24 25 25 25 25 27 29 31 33 34 34 35
15 16 16 16 15 14 14 16 17 18 18 16 15 14 13 12 12 13 14 15 15 16 16 17 17 18 17 17 17 15 11 9 9 8 9 12 15 13 12 14 15 17 17 18 20 23 24 24 24 25 26 28 29 27 25 24 25 28 31 33 34 35 35
16 17 17 17 17 16 15 15 17 19 20 18 16 15 14 13 12 13 14 14 14 16 17 17 17 17 18 17 17 17 15 11 8 7 8 11 14 14 14 14 15 17 17 16 17 20 22 22 21 21 22 26 32 34 31 26 24 25 28 32 34 34 35
16 17 18 19 19 18 17 17 17 18 19 19 17 16 15 14 13 14 14 13 13 14 16 17 17 17 17 18 18 18 17 15 10 8 8 10 12 12 12 13 14 14 14 15 16 16 17 20 20 20 19 21 28 34 35 32 28 26 27 30 33 32 31
16 17 19 20 20 21 20 19 17 17 18 19 18 16 16 15 15 14 14 14 13 14 15 16 17 17 17 17 18 18 18 17 14 11 9 9 10 10 10 11 13 14 14 14 14 13 13 17 18 18 18 19 22 27 31 36 37 31 26 26 30 30 30
16 17 19 20 21 21 21 20 20 19 19 19 19 17 17 17 16 16 15 15 14 14 15 15 16 17 18 17 17 17 16 17 18 15 10 8 9 10 10 9 11 12 13 14 13 12 12 14 15 18 18 16 16 19 24 32 38 37 30 23 23 25 26
17 18 19 20 21 21 21 21 22 22 21 20 19 18 17 17 17 16 16 16 15 14 15 16 15 16 17 16 16 15 15 17 18 18 15 11 10 9 9 10 11 13 15 17 16 15 16 17 18 21 19 16 15 17 19 25 33 37 37 31 22 20 18
17 18 19 20 21 21 22 22 23 23 23 22 20 19 18 18 17 17 17 17 16 15 16 16 15 14 15 15 14 14 15 17 17 18 19 17 13 10 10 12 13 14 17 19 18 16 17 19 23 24 21 20 23 23 21 24 31 35 36 33 26 21 17
17 18 19 20 21 21 22 23 23 23 23 22 20 19 19 18 17 17 16 14 13 14 15 16 15 14 13 13 14 14 15 17 18 19 20 20 17 13 11 12 15 16 16 16 17 16 16 18 21 23 23 25 30 30 26 27 32 37 39 34 26 21 20
17 18 18 19 20 21 23 23 24 24 24 22 21 19 19 18 17 16 15 13 11 13 15 16 16 15 14 13 14 14 15 16 18 20 21 20 19 17 12 11 14 17 18 18 18 19 20 19 18 18 21 25 29 31 30 30 30 35 40 37 28 21 20
Wind_Direction
30 30 350 258 212 203 213 207 197 197 195 192 193 193 193 193 190 187 187 188 189 190 191 193 194 196 199 202 204 206 207 208 208 208 210 212 212 209 205 205 206 208 208 206 205 204 205 203 202 203 204 204 207 208 209 210 205 202 207 209 208 209 211
25 22 16 357 332 220 219 214 202 198 197 195 196 196 195 194 192 190 188 188 190 191 191 193 195 195 199 201 202 204 206 208 209 209 210 211 212 211 209 209 208 206 207 208 204 203 202 202 204 206 208 209 211 212 213 211 207 205 210 212 211 211 212
22 18 12 359 350 338 261 220 208 203 200 197 198 200 199 197 195 193 192 190 191 191 191 193 195 197 198 199 200 202 205 207 209 210 212 213 213 213 213 214 212 210 208 209 208 206 206 206 206 209 211 215 216 215 216 214 210 210 211 213 218 218 215
24 19 10 3 355 346 328 244 214 208 206 201 199 201 201 199 198 197 196 196 194 192 192 193 196 197 197 198 200 201 204 206 208 211 214 216 216 216 216 215 215 213 211 209 209 209 209 208 209 211 213 217 219 217 217 217 214 214 213 215 222 224 221
26 26 16 11 8 353 345 319 238 215 211 207 204 204 202 199 199 201 201 201 200 198 197 197 198 198 196 198 200 202 204 205 207 210 213 215 216 215 216 215 214 214 212 210 209 207 207 208 210 213 214 216 219 218 217 217 217 217 216 216 220 223 224
25 28 23 17 13 7 2 356 323 235 213 208 211 209 204 201 202 205 207 204 202 201 201 202 202 198 197 199 201 202 203 204 206 209 210 212 213 214 215 215 215 216 214 211 210 208 207 210 213 215 215 216 217 217 216 217 218 218 217 218 219 224 226
27 26 28 26 20 19 19 13 4 343 224 207 213 210 205 206 207 208 210 208 205 203 202 204 204 201 201 201 201 200 201 203 204 207 208 209 211 213 216 216 217 218 216 214 213 210 210 211 213 215 216 218 218 218 218 217 219 220 219 220 220 222 227
30 28 29 30 26 30 32 25 18 15 21 29 252 221 206 210 215 213 212 211 209 207 205 204 203 202 202 202 201 201 202 203 204 205 207 208 210 213 216 217 217 216 215 216 215 214 213 213 213 214 215 217 219 220 221 219 220 221 220 222 222 222 225
32 29 29 32 29 34 41 38 30 21 21 26 17 1 282 215 219 218 213 212 210 209 210 208 204 202 201 202 202 202 202 203 203 204 205 208 211 214 216 216 216 215 215 217 217 216 216 215 214 214 213 215 216 217 220 221 221 224 223 223 224 224 226
34 29 27 30 29 33 42 42 38 27 20 23 21 11 7 343 248 222 213 213 212 211 212 211 207 202 200 202 205 204 204 203 203 205 206 209 212 214 216 216 215 215 215 218 219 218 218 217 216 214 212 213 214 214 217 219 220 224 225 225 225 226 228
38 32 27 28 27 30 37 39 38 33 25 24 24 17 10 5 350 283 229 220 215 215 213 210 209 206 201 204 207 207 206 206 206 208 209 211 214 215 216 216 215 215 214 217 220 220 219 217 216 215 213 214 215 215 216 218 220 223 225 226 226 226 228
39 37 32 31 28 27 30 32 32 30 27 28 27 20 14 11 7 1 343 265 223 218 217 212 210 208 205 205 207 207 207 208 209 211 212 213 215 216 216 216 216 215 214 215 217 219 219 218 216 215 215 216 216 216 217 217 219 221 224 226 227 226 228
42 41 37 35 32 29 27 26 25 22 22 27 26 22 20 19 13 8 4 350 281 232 221 215 212 210 208 208 209 208 207 207 209 211 213 214 215 216 216 216 216 216 215 215 215 217 219 219 218 217 217 218 218 217 218 217 218 221 223 225 227 227 228
45 43 39 37 32 30 28 25 21 17 18 21 20 18 21 22 17 10 4 0 351 305 237 221 216 214 213 212 212 210 208 208 209 210 213 214 215 216 216 216 216 216 215 214 214 216 218 220 220 219 219 220 220 220 219 217 218 219 220 223 225 227 228
43 41 39 36 31 28 27 26 22 16 16 16 13 12 14 17 18 13 5 0 0 354 330 261 227 221 220 217 216 214 211 210 209 210 211 212 213 214 216 217 217 215 214 214 215 216 218 220 221 221 221 220 221 221 220 220 219 218 219 220 221 224 227
39 38 37 34 30 26 24 24 22 17 14 13 10 8 8 7 10 13 12 5 352 349 349 336 263 231 228 227 223 218 213 211 211 211 209 209 211 213 215 216 218 217 216 216 216 217 217 218 220 222 222 221 220 220 220 220 220 221 223 223 221 221 224
34 32 33 31 28 25 21 21 20 16 14 11 8 4 1 358 358 6 12 11 1 348 337 336 317 253 236 235 234 230 222 214 211 211 210 210 212 213 214 216 217 219 218 218 219 219 217 217 218 221 222 222 221 220 220 222 222 223 227 229 228 223 220
35 27 26 26 24 22 19 18 17 14 11 9 6 3 359 354 352 356 359 0 4 0 346 335 325 287 257 247 238 234 234 227 219 215 213 213 214 216 216 216 216 218 219 220 220 220 219 219 219 220 222 223 223 222 222 224 224 225 229 232 234 231 225
32 27 22 19 20 19 15 14 14 11 8 6 6 4 360 355 352 350 348 348 356 5 5 356 339 321 305 282 244 226 228 232 231 229 224 219 218 218 218 217 217 219 221 222 223 221 221 222 221 221 222 223 224 225 226 227 226 227 231 234 236 236 231
26 24 20 15 14 14 12 9 8 7 4 4 4 2 0 356 352 348 344 345 352 5 13 10 357 346 339 333 306 240 227 227 231 234 233 228 222 220 219 219 219 222 223 225 224 222 222 222 222 222 222 222 224 225 227 229 228 228 233 236 237 238 235
24 20 18 13 8 7 7 5 3 2 0 360 360 359 358 357 355 350 344 343 351 1 11 14 10 3 349 343 346 327 258 240 237 236 233 231 227 225 223 221 221 223 225 225 224 223 223 223 223 223 223 223 224 226 228 229 229 228 232 236 237 238 236
13 13 12 9 2 2 3 1 360 358 356 355 356 357 356 354 354 351 345 343 348 356 5 11 13 13 5 348 342 342 332 298 269 251 238 233 231 230 229 227 223 222 223 225 227 225 223 223 224 224 224 224 224 225 228 230 229 228 230 234 236 236 234
356 357 1 360 355 356 358 356 354 352 350 351 355 355 352 350 349 348 346 346 346 348 359 9 10 9 8 359 344 334 329 323 312 288 259 242 236 235 236 234 232 227 224 224 226 228 226 225 225 225 225 225 224 225 228 230 230 229 231 233 234 232 231
346 343 347 348 344 344 350 350 345 342 342 346 352 352 348 347 346 344 345 347 346 344 348 356 3 4 360 355 347 336 327 317 310 306 293 268 248 241 239 238 237 234 230 227 227 228 227 226 227 227 226 226 224 223 226 229 229 228 229 232 232 231 229
344 338 335 334 334 337 341 337 331 330 334 339 347 347 343 345 346 343 341 343 342 343 344 343 344 347 350 350 344 335 329 322 312 305 301 296 284 267 256 249 243 239 236 232 231 231 231 230 229 229 228 228 227 226 226 229 229 227 227 230 231 231 228
338 336 331 328 330 335 332 324 320 323 327 333 339 338 337 341 343 341 340 337 334 337 341 341 337 331 331 340 343 334 326 325 322 312 301 299 304 305 298 280 264 256 251 244 238 235 235 234 233 233 232 230 229 228 226 226 227 227 227 228 230 231 227
329 330 330 329 330 331 325 318 319 318 318 323 325 326 332 337 336 336 336 333 332 334 335 334 333 328 323 322 327 331 326 321 322 319 311 303 300 310 315 301 280 268 261 257 258 255 247 242 238 236 237 235 233 231 229 226 225 225 226 227 229 230 227
326 326 329 329 328 327 323 321 320 315 312 316 317 319 326 327 325 328 329 329 331 333 331 329 328 327 323 317 311 315 323 326 326 322 319 316 312 315 315 302 288 280 263 251 256 267 270 266 258 248 242 239 236 234 232 228 224 223 224 226 228 230 229
324 324 326 325 325 327 325 320 318 315 313 313 312 314 316 314 315 319 321 324 329 329 328 327 326 324 322 317 311 308 312 326 333 325 317 321 325 323 315 300 296 298 283 258 248 249 254 260 265 269 267 258 247 240 235 231 228 224 224 225 227 230 230
322 320 321 321 322 326 325 319 315 314 313 310 308 307 304 301 303 308 312 318 324 326 326 325 324 323 321 318 316 312 309 317 330 327 319 323 325 318 309 300 282 268 266 264 254 245 240 239 247 262 273 275 269 259 246 235 230 228 226 226 228 230 231
318 316 317 317 318 320 320 316 312 311 310 308 305 301 298 294 292 296 305 313 318 322 324 324 323 322 320 319 318 316 314 313 320 329 322 320 321 315 307 305 288 262 255 260 259 253 249 244 239 243 256 271 278 275 266 253 240 232 229 229 229 231 233
311 312 313 314 315 316 315 312 309 307 307 307 305 300 296 292 287 288 298 306 311 317 321 322 321 319 318 319 317 317 316 312 312 327 326 316 316 316 312 311 304 290 275 266 263 261 257 251 244 236 235 252 269 277 279 275 262 244 232 229 227 228 231
308 310 310 310 311 312 311 308 305 304 304 305 305 301 297 293 288 287 293 300 307 314 318 319 319 318 317 318 317 316 316 313 313 318 322 319 314 312 315 316 310 304 294 279 273 275 269 259 253 245 235 236 252 267 277 281 276 263 244 225 218 221 227
305 306 306 307 307 307 306 305 303 302 301 300 300 298 293 290 288 286 289 295 302 310 314 314 316 317 315 315 316 315 313 313 313 312 312 319 317 311 313 315 307 304 302 298 295 293 287 279 272 263 253 246 248 257 269 278 280 275 265 245 220 215 222
304 304 304 304 304 304 303 301 299 298 297 296 296 293 288 286 285 283 283 287 294 302 307 308 311 314 313 312 312 313 313 312 312 311 310 311 311 310 309 305 300 296 293 294 295 290 287 288 283 276 274 272 266 259 259 268 272 273 276 274 252 222 212
303 303 303 303 302 300 298 297 296 295 294 294 294 290 284 280 279 279 278 281 288 295 300 304 308 310 311 310 309 312 315 313 310 310 309 307 305 308 309 303 300 298 296 298 300 292 282 278 276 278 282 281 273 265 258 262 266 270 277 280 267 239 221
302 302 303 303 302 300 297 296 294 291 291 292 292 288 282 276 273 273 271 274 284 291 295 301 306 306 307 309 309 311 312 310 307 306 306 306 304 306 310 310 309 308 306 309 311 305 294 283 276 275 275 272 271 272 273 273 273 272 274 275 269 252 240
303 303 305 305 304 303 301 297 293 290 289 290 289 286 280 273 269 268 265 265 275 286 290 296 301 302 303 304 305 307 307 305 305 305 305 305 305 304 306 312 316 316 316 317 317 314 311 307 298 286 275 266 266 272 278 280 280 276 272 271 271 268 262